Theta_e
288 284 282 286 288 288 287 285 284 288 290 288 289 291 296 300 297 296 297 298 298 299 302 303 304 304 304 304 304 304 304 305 304 301 300 299 298 299 300 300 298 298 295 297
284 281 287 288 288 286 285 283 284 287 288 287 288 288 293 295 295 296 296 297 299 300 301 301 300 302 302 303 303 303 303 303 302 303 302 301 300 301 301 299 297 296 297 296
281 284 286 285 283 283 284 283 284 283 287 285 283 283 287 292 292 293 295 296 298 298 298 300 298 299 301 301 302 301 302 302 301 302 301 300 301 299 297 296 296 294 296 296
283 287 284 282 281 283 279 286 285 283 282 277 284 276 284 289 290 290 292 294 295 296 296 295 295 296 298 300 302 301 301 301 300 301 300 299 297 297 298 297 297 295 294 294
281 282 281 280 282 283 281 286 284 283 281 280 280 276 282 288 286 289 291 293 295 294 292 291 289 290 292 296 299 300 300 300 299 299 299 299 299 300 299 299 294 293 293 293
283 287 284 284 283 283 286 283 282 282 281 273 279 279 280 284 287 289 291 292 292 289 288 289 291 292 293 295 297 298 298 297 298 297 298 298 299 299 297 297 296 296 296 295
281 282 285 286 282 284 282 279 273 271 271 272 281 278 282 286 288 288 290 289 287 288 289 290 291 291 293 293 295 296 296 295 296 297 297 297 299 298 297 296 296 295 294 294
275 275 282 284 281 280 280 279 274 268 270 274 277 274 281 288 289 289 287 286 285 286 288 288 289 290 291 292 293 294 294 295 295 295 296 297 298 296 296 296 296 295 294 294
275 275 280 280 280 282 279 276 283 276 275 274 277 280 285 288 285 283 284 284 284 283 284 284 285 288 290 291 291 292 292 293 293 294 294 294 295 294 294 294 295 293 293 292
279 273 279 279 279 280 280 283 275 276 270 269 275 278 280 285 284 283 282 284 282 282 283 283 283 284 286 288 290 290 291 291 291 292 292 292 292 293 293 292 291 292 291 291
281 277 276 276 275 277 278 278 278 278 278 272 272 277 283 282 284 285 283 283 283 283 282 283 283 284 285 286 288 288 288 289 289 290 290 290 290 291 291 290 291 291 291 291
282 279 274 276 277 277 277 279 279 275 274 277 276 278 280 280 281 283 282 282 283 283 282 282 282 283 284 285 285 286 288 288 289 289 289 289 289 289 289 289 290 290 289 290
281 277 272 274 275 275 275 277 278 280 278 275 274 276 281 281 281 282 282 282 283 282 282 282 282 282 282 283 284 284 285 287 288 288 288 288 288 288 288 289 289 289 289 289
280 278 275 271 274 275 273 275 276 276 274 275 276 279 283 280 281 282 283 283 282 281 280 281 281 281 281 282 282 283 284 285 287 287 287 287 287 287 288 288 288 288 288 287
275 271 272 273 275 276 276 276 276 274 275 272 276 277 278 281 281 282 283 283 282 280 280 279 279 280 281 280 281 281 282 283 285 286 286 287 287 287 287 287 287 287 287 287
276 269 271 270 275 275 274 276 276 277 277 277 277 276 282 284 284 283 283 283 282 280 279 278 278 278 278 278 278 279 281 282 283 285 285 286 286 286 286 286 286 286 286 285
271 271 269 265 273 271 269 273 275 276 273 273 273 275 278 278 279 276 277 279 279 278 277 276 276 276 276 276 276 277 280 283 283 284 284 285 285 285 285 285 285 284 284 284
270 270 270 266 267 262 272 277 276 273 273 274 275 275 276 276 274 274 275 275 274 275 274 274 274 274 274 275 275 277 280 283 283 283 283 284 284 283 284 283 283 283 283 283
274 271 267 265 266 270 272 273 272 272 270 274 273 275 276 277 276 274 275 274 273 273 273 273 273 273 274 273 275 277 277 278 280 280 282 282 283 282 282 281 281 281 282 282
273 274 270 265 263 262 269 273 276 275 266 274 275 274 274 279 271 272 275 274 273 273 273 272 272 273 272 272 275 275 274 274 273 275 278 280 281 281 280 280 279 280 281 280
266 267 266 266 266 268 272 274 277 267 267 275 276 276 275 273 274 275 275 274 273 272 271 272 271 270 270 271 273 272 272 271 272 274 276 277 278 278 279 279 279 279 280 281
266 265 266 267 265 263 275 274 269 273 276 276 276 277 276 277 278 278 276 273 272 271 271 270 270 269 269 270 271 270 269 271 273 275 276 275 277 277 278 278 279 280 281 281
266 270 268 269 270 275 277 276 278 278 277 277 277 277 278 277 277 277 276 274 272 271 270 269 269 269 268 269 269 269 269 270 272 274 274 275 276 278 279 278 278 279 280 279
270 270 271 270 270 273 275 276 278 279 278 278 277 276 274 273 274 273 274 273 272 271 269 269 269 268 267 268 268 269 269 270 271 272 273 275 275 276 277 278 278 278 278 277
272 271 269 270 271 274 273 273 273 277 274 272 272 272 271 271 270 270 270 270 270 270 269 268 267 267 266 267 267 268 269 270 270 270 271 272 273 273 273 274 276 276 277 278
271 270 269 269 270 272 271 267 268 268 266 266 266 267 269 268 267 267 268 268 268 267 267 267 267 266 266 266 266 267 268 269 270 269 270 271 272 273 274 274 275 278 278 277
Wind_Speed
10 11 20 31 23 27 20 17 23 22 6 10 17 25 29 22 20 19 18 16 17 18 18 12 12 11 13 15 16 17 18 18 15 13 13 12 12 10 9 9 12 13 9 9
6 22 27 17 16 21 20 20 24 22 3 9 11 21 25 21 22 22 22 21 23 21 20 14 13 13 14 15 17 17 18 19 17 13 12 9 11 9 9 8 11 10 13 10
17 13 3 15 17 20 22 23 27 25 13 5 4 16 25 22 21 21 24 24 23 22 22 18 14 14 14 15 17 18 19 20 19 17 12 8 10 8 9 10 10 8 12 10
16 18 24 19 20 17 21 22 22 18 14 14 6 15 25 22 20 17 20 20 21 23 17 14 14 14 15 15 14 17 18 19 18 19 16 17 13 11 10 11 11 9 10 10
7 6 4 13 22 10 18 10 18 17 15 17 14 9 25 13 21 23 19 19 18 12 11 11 9 8 9 10 13 14 16 17 18 18 17 14 14 10 8 9 13 10 11 10
24 13 11 18 4 6 16 10 9 3 10 11 27 17 25 18 27 23 17 14 11 8 6 4 1 2 4 7 11 13 15 16 17 17 18 17 17 13 11 12 11 11 11 12
11 20 20 15 20 17 6 9 5 6 8 12 4 14 25 5 4 7 14 6 4 4 4 4 4 4 5 8 10 11 14 15 15 17 17 17 16 15 15 14 11 13 10 11
8 8 6 9 23 10 15 15 6 8 7 8 7 13 19 11 12 9 3 6 6 6 5 5 4 4 4 5 8 9 11 12 13 14 15 13 14 9 10 12 9 9 10 11
5 7 1 2 1 8 12 12 15 5 2 5 8 15 18 19 10 3 7 9 8 7 7 7 7 6 4 4 5 7 9 9 11 12 12 12 12 12 11 11 10 8 9 9
5 9 4 4 1 2 7 2 6 6 7 9 11 12 13 5 5 5 8 9 7 6 6 7 7 8 6 5 2 4 6 8 9 10 10 10 11 12 10 9 10 10 9 10
3 7 4 1 7 13 6 5 6 3 7 5 6 5 7 9 9 8 9 9 6 6 6 6 7 6 6 7 5 1 4 5 6 8 8 9 9 10 9 9 10 10 9 10
6 5 9 11 2 2 4 12 6 5 4 8 7 10 5 8 9 4 10 9 7 6 6 6 7 7 8 8 7 5 2 4 6 7 8 8 8 9 9 9 9 9 10 9
5 4 4 4 2 1 4 6 7 9 2 8 7 4 9 14 13 11 9 7 5 6 6 7 7 8 8 8 7 6 5 3 4 6 7 8 8 9 9 9 9 8 8 8
11 5 5 10 6 2 5 7 9 9 7 11 16 16 14 7 9 8 6 6 5 5 7 8 8 9 9 8 9 8 6 5 3 4 6 7 8 8 8 7 8 8 8 8
4 6 9 15 13 9 6 6 10 12 16 11 10 8 2 6 2 3 4 3 3 6 8 9 9 9 9 9 9 9 8 6 3 5 5 6 6 6 7 7 7 7 7 7
0 4 6 7 8 10 11 13 12 15 16 19 20 20 10 14 3 3 4 2 1 5 7 8 9 10 11 12 12 10 9 8 5 4 4 5 6 7 7 7 7 7 7 7
4 3 5 7 10 15 8 5 5 5 9 6 6 7 11 9 12 10 10 9 7 7 8 8 8 8 9 10 11 10 9 7 1 4 4 6 6 7 7 7 8 7 8 8
4 4 6 8 4 7 5 5 13 16 10 12 7 12 13 9 8 10 11 9 8 8 9 9 9 9 9 10 10 10 9 6 4 4 4 5 6 7 7 7 7 7 7 7
14 7 5 5 6 8 7 4 3 3 10 13 12 14 15 5 11 12 10 10 9 8 8 7 8 8 8 9 10 9 10 10 9 7 5 3 5 7 7 7 7 7 8 8
5 10 6 3 6 5 5 7 6 4 6 11 12 16 18 7 7 5 9 7 7 6 7 8 8 8 8 9 10 10 11 11 11 10 7 4 4 6 7 7 8 7 7 8
2 1 8 8 8 3 4 7 1 6 5 4 8 9 12 10 4 1 6 9 7 6 7 7 6 7 10 12 10 10 10 12 9 8 7 7 6 7 8 8 8 9 10 10
7 5 4 3 6 7 4 1 4 5 3 2 1 5 7 6 3 3 5 7 8 9 10 11 9 10 11 12 9 9 11 8 7 7 8 8 7 6 6 9 9 10 11 13
6 6 3 6 1 5 3 5 10 12 8 5 1 4 2 4 7 7 7 5 6 6 6 6 7 8 9 10 9 9 9 8 7 8 8 8 8 8 7 9 9 9 10 10
4 4 5 3 4 10 5 1 7 7 4 4 7 7 8 7 10 10 9 8 7 4 4 4 5 6 7 7 8 7 7 6 7 8 8 7 7 8 8 6 5 6 7 9
3 10 6 4 3 7 4 5 3 3 8 9 8 9 9 8 8 9 9 10 9 7 5 3 3 4 5 5 7 8 8 5 6 6 6 7 6 7 7 7 6 5 6 7
7 7 8 8 7 1 4 6 5 8 8 9 8 8 9 10 9 10 8 9 9 9 8 7 6 6 6 6 6 7 7 6 4 5 5 5 5 5 6 7 8 13 14 18
Wind_Direction
203 218 223 224 220 239 254 256 251 251 223 208 227 243 255 252 227 248 249 251 249 251 253 232 225 214 211 209 202 200 193 190 182 183 182 182 185 181 180 181 178 174 169 170
216 232 240 258 252 241 244 245 256 264 199 219 237 248 264 260 246 249 253 250 250 252 251 239 227 213 206 205 205 200 199 191 189 187 184 185 183 190 181 179 183 185 182 177
238 244 202 267 252 238 238 237 246 258 264 226 285 270 267 258 248 252 251 252 254 251 249 243 217 218 211 210 206 202 198 193 192 189 178 170 158 158 176 187 189 194 189 174
257 262 261 261 253 239 253 239 254 258 262 257 182 276 270 262 259 240 244 247 248 248 242 248 245 231 220 214 206 204 199 195 192 187 181 182 179 181 195 192 189 182 184 179
244 264 312 244 246 210 247 255 244 249 243 264 225 250 268 260 253 253 248 235 242 244 236 236 226 226 224 214 201 198 195 192 190 188 190 186 195 190 175 174 176 181 186 191
254 259 251 249 316 278 264 256 249 241 244 244 242 230 272 249 251 256 254 250 244 208 209 214 201 191 185 177 187 186 185 188 186 189 195 195 194 181 177 176 181 186 187 193
284 248 241 228 243 256 253 233 224 227 217 239 256 213 242 63 135 291 261 224 180 144 154 154 161 157 149 157 166 174 182 186 185 194 197 199 200 193 192 178 182 178 187 193
287 292 214 215 224 219 214 220 207 220 215 256 157 215 237 256 282 256 197 146 122 108 100 82 76 85 118 145 163 171 182 181 185 192 196 200 203 200 202 192 185 188 192 197
242 250 351 193 268 227 230 232 213 273 273 276 215 246 281 265 252 188 164 151 126 109 90 75 63 56 64 129 164 177 178 181 186 190 191 196 197 201 197 190 192 188 192 190
264 266 277 296 179 212 234 290 173 195 222 230 237 256 251 289 251 199 172 155 117 103 84 63 52 44 38 40 86 174 181 186 186 189 192 195 196 200 196 187 189 189 186 181
297 226 227 219 207 216 200 210 228 268 230 245 258 237 13 339 337 250 181 150 125 101 81 69 59 46 41 43 36 99 176 183 188 194 193 195 194 195 189 189 193 190 182 183
229 253 233 242 30 344 323 228 211 245 183 235 281 259 18 344 302 263 154 126 106 86 75 62 54 40 37 31 21 16 5 216 204 194 189 193 186 186 189 195 191 181 182 183
353 238 255 219 162 84 220 253 251 242 252 241 240 169 51 46 50 82 93 90 82 83 68 61 49 42 31 22 11 3 5 312 227 194 190 181 182 187 193 192 185 181 176 177
0 296 283 287 339 349 212 215 235 253 256 255 243 276 308 51 62 40 68 71 64 53 49 41 37 29 22 10 1 358 347 342 272 203 192 184 185 183 185 178 177 172 177 166
53 296 4 314 295 267 265 257 211 219 244 246 275 273 39 37 316 109 25 28 47 44 38 31 20 12 12 5 358 354 341 333 287 189 187 178 168 169 161 162 166 166 173 171
170 281 324 303 333 337 269 263 249 242 235 249 257 264 350 320 304 59 353 313 13 50 41 28 12 6 3 356 348 338 336 324 295 172 168 158 155 158 155 151 153 155 159 156
257 252 286 271 302 327 277 276 254 101 34 341 297 343 333 328 352 32 356 24 55 40 24 18 3 3 356 345 328 325 335 319 264 148 147 147 147 140 140 140 144 149 153 150
235 237 255 282 282 252 70 31 91 89 51 18 1 343 327 310 90 48 20 32 42 29 10 1 354 353 350 341 339 341 351 21 55 92 115 125 130 127 130 131 133 129 136 135
217 210 239 241 235 290 193 29 5 333 54 23 12 358 344 275 139 65 31 16 21 17 10 355 350 346 337 346 348 11 18 29 32 26 54 79 115 121 124 121 118 113 121 123
237 216 221 181 243 255 45 316 279 249 69 20 22 23 17 63 82 24 4 22 35 33 12 360 360 1 357 353 8 32 30 32 19 2 2 40 74 111 109 115 111 103 115 118
163 192 224 245 255 236 322 311 71 210 91 58 28 30 32 46 47 331 23 33 35 37 23 18 21 18 10 5 14 39 38 29 0 360 21 42 66 92 106 104 109 118 118 120
196 183 210 221 239 238 311 100 65 107 145 155 68 65 51 39 40 35 76 49 30 27 22 19 21 23 12 8 15 38 41 11 12 32 46 51 61 78 96 105 112 117 124 118
206 196 213 226 341 136 101 131 166 174 173 199 108 45 18 55 29 38 50 54 53 37 29 22 28 26 19 15 17 32 20 18 24 50 53 59 71 81 93 109 117 120 121 121
232 174 205 173 176 185 157 37 161 169 151 106 44 46 28 12 12 7 12 20 28 47 37 16 36 44 36 22 33 30 18 26 47 56 58 61 75 82 88 100 104 120 126 125
183 153 179 225 133 149 121 71 38 127 66 59 44 38 27 15 18 2 358 3 1 4 10 18 36 68 60 33 34 27 22 31 65 68 62 66 70 79 80 65 82 91 95 131
182 177 198 222 143 130 121 100 51 88 56 40 25 13 15 16 6 357 359 359 357 352 350 356 7 18 24 35 41 32 33 39 61 82 76 72 88 89 98 105 105 101 113 118